Regional Weather Roundup
Issued by NWS

Home | Current Version | Previous Version | Graphics & Text | Print | Product List | Glossary On
Versions: 1 2 3 4 5 6 7 8 9 10 11 12 13 14 15 16 17 18 19 20 21 22 23 24 25 26 27 28 29 30 31 32 33 34 35 36 37 38 39 40 41 42 43 44 45 46 47 48 49 50
000
ASUS43 KMKX 011959
RWRWI

WISCONSIN REGIONAL WEATHER ROUNDUP
NATIONAL WEATHER SERVICE MILWAUKEE/SULLIVAN WI
200 PM CST SUN FEB 01 2015

NOTE: "FAIR" INDICATES FEW OR NO CLOUDS BELOW 12,000 FEET WITH NO
SIGNIFICANT WEATHER AND/OR OBSTRUCTIONS TO VISIBILITY.

WIZ001-002-006>008-014>016-023>028-012100-
NORTHWEST WISCONSIN

CITY           SKY/WX    TMP DP  RH WIND       PRES   REMARKS
SUPERIOR ARPT  SUNNY     11  -7  42 NE10G16   30.34F WCI  -2
ASHLAND        CLOUDY    10   2  69 N17G25    30.30F WCI  -8
HAYWARD        CLOUDY    11   1  64 NE15G23   30.22F WCI  -5
SIREN          MOSUNNY   14   1  55 NE14G20   30.25F WCI   0
CUMBERLAND     CLOUDY    14   1  57 N16G22    30.19F WCI  -2
RICE LAKE      CLOUDY    15   4  61 N18       30.20F WCI  -2
CHETEK         CLOUDY    16   1  53 N9G16     30.19F WCI   4
LADYSMITH      CLOUDY    14   1  57 N15G22    30.19F WCI  -2
EAU CLAIRE     NOT AVBL
MENOMONIE      CLOUDY    15   1  52 N15G24    30.18F WCI   0
NEW RICHMOND   CLOUDY    15   3  60 N18       30.20F WCI  -2
OSCEOLA        PTSUNNY   16   5  61 N14       30.25F WCI   2
$$

WIZ003>005-009-010-017-018-012100-
NORTH CENTRAL WISCONSIN

CITY           SKY/WX    TMP DP  RH WIND       PRES   REMARKS
MANITOWISH WTR CLOUDY     9  -2  60 NE14      30.16F WCI  -7
ARBOR VITAE    CLOUDY    11   1  62 N10G18    30.15F WCI  -2
WOODRUFF       CLOUDY    11   1  62 N10G18    30.15F WCI  -2
RHINELANDER    CLOUDY    10  -1  61 NE10      30.12F WCI  -4
EAGLE RIVER    CLOUDY    10  -2  59 NE14      30.14F WCI  -6
LAND O LAKES   CLOUDY    10   0  64 N13       30.16F WCI  -5
PHILLIPS       MOSUNNY   10  -1  61 NE16G22   30.15F WCI  -7
TOMAHAWK       CLOUDY    11   0  59 NE6       30.14F WCI   2
MEDFORD        CLOUDY    11   0  61 N16       30.09F WCI  -5
MERRILL        CLOUDY    13   1  58 NE13G18   30.11F WCI  -2
$$

WIZ029-030-035-036-043>047-012100-
CENTRAL WISCONSIN

CITY           SKY/WX    TMP DP  RH WIND       PRES   REMARKS
WAUSAU         CLOUDY    13   0  56 NE12G21   30.09F WCI  -1
MOSINEE        MOSUNNY   12   3  67 NE15      30.10F WCI  -4
MARSHFIELD     CLOUDY    13   2  61 NE15      30.08F WCI  -3
STEVENS POINT  CLOUDY    10  -1  61 NE13      30.10F WCI  -5
WAUPACA        CLOUDY    13  -2  51 N17G28    30.12F WCI  -4
WAUTOMA        LGT SNOW  12   5  73 NE15G22   30.08F WCI  -4
WISC RAPIDS    LGT SNOW  12   1  61 NE14G25   30.10F WCI  -3
CAMP DOUGLAS   LGT SNOW  14   9  79 NE13G24   30.08F BLWGSNOWWCI   0
$$

WIZ011>013-019>022-031-037>040-048>050-012100-
NORTHEAST WISCONSIN

CITY           SKY/WX    TMP DP  RH WIND       PRES   REMARKS
ANTIGO         CLOUDY    10   1  68 NE18      30.10F WCI  -8
SHAWANO        CLOUDY    13  -1  53 NE18      30.16F WCI  -4
OCONTO         CLOUDY     9  -6  51 NE20G28   30.19F WCI -11
STURGEON BAY   CLOUDY    10   1  67 N20G25    30.16F WCI  -8
GREEN BAY      MIX PCPN   9   2  73 NE28G37   30.13F WCI -13
MANITOWOC      LGT SNOW  18  14  86 NE16G28   30.06F FOG     WCI   3
APPLETON       LGT SNOW  12   3  67 NE23G30   30.08F WCI  -7
CLINTONVILLE   CLOUDY    12   0  57 NE14G25   30.14F WCI  -3
OSHKOSH        SNOW      10   5  80 NE25G39   30.05F VSB 1/2 WCI -11
$$

WIZ032>034-041-042-053>061-012100-
SOUTHWEST WISCONSIN

CITY           SKY/WX    TMP DP  RH WIND       PRES   REMARKS
LA CROSSE      LGT SNOW  17   8  67 NE16G23   30.10S WCI   2
SPARTA         LGT SNOW  15   8  73 NE16G30   30.09F WCI  -1
VIROQUA        CLOUDY    14   9  79 NE23G30   29.99F WCI  -5
BOSCOBEL       LGT SNOW  17  11  77 NE13G18   30.01R VSB 3/4 WCI   4
PRAIRIE DU CHI MIX PCPN  17  10  74 N15G24    30.00S WCI   3
PLATTEVILLE    CLOUDY    17  14  88 N30G37    29.88S VSB 1/4 WCI  -3
$$

WIZ056-057-062-063-064-067-068-012100-
SOUTH CENTRAL WISCONSIN

CITY           SKY/WX    TMP DP  RH WIND       PRES   REMARKS
REEDSBURG      LGT SNOW  13   9  82 NE17G24   30.01F WCI  -3
BARABOO/DELLS  LGT SNOW  13   9  82 NE17G25   30.00F VSB 1   WCI  -4
LONE ROCK      LGT SNOW  16   9  74 NE15G30   30.00F VSB 1   WCI   1
MINERAL POINT  LGT SNOW  18  12  79 NE26G35   29.88F VSB 3/4 WCI  -1
MADISON        SNOW      13   9  84 N29G36    29.94F VSB 1/4 WCI  -8
MIDDLETON      CLOUDY    16  11  81 NE29G38   29.95F VSB 1   WCI  -4
WATERTOWN      LGT SNOW  19  16  88 N14       29.93F VSB 1   WCI   5
MONROE         LGT SNOW  18  14  86 N30G37    29.85F WCI  -2
JANESVILLE     NOT AVBL
$$

WIZ051-052-058>065-066-070>072-012100-
SOUTHEAST WISCONSIN

CITY           SKY/WX    TMP DP  RH WIND       PRES   REMARKS
MILWAUKEE      SNOW      22  17  81 NE24G36   29.92S VSB 1/2 WCI   5
WAUKESHA       LGT SNOW  19  16  86 NE12G35   29.91F VSB 1   WCI   7
MILWAUKEE/TIMM NOT AVBL
RACINE         HVY SNOW  22  17  81 NE28G37   29.91R VSB 1/4 WCI   4
BURLINGTON     LGT SNOW  21  18  87 NE17G28   29.88S WCI   7
KENOSHA        HVY SNOW  22  19  89 NE23G38   29.87S VSB 1/4 WCI   6
FOND DU LAC    HAZE      10   5  80 N26G36    30.03F VSB 3/4 WCI -11
SHEBOYGAN      HVY SNOW  18  15  88 NE28G35   30.00F VSB 1/4 WCI  -1
WEST BEND      LGT SNOW  19  14  79 NE20G32   29.95F WCI   4
JUNEAU         LGT SNOW  11   6  83 N24G32    29.97F VSB 1   WCI  -9
$$

LSZ147-162-012100-
LAKE SUPERIOR

STATION/POSITION TIME  TEMP    WIND        PRES    WAVE
                       AIR SEA DIR/SP/G            HT/PER
                 (UTC) (F)     (DEG/KT/KT) (MB)    (FT/S)
DEVILS ISLAND    1900    8      40/ 14/ 16 1029.8F
PORT WING        1940   12      50/ 14/ 19 1027.1F
SAXON HARBOR     1940   15      30/ 20/ 23 1025.4F
$$

LMZ867-665-643>646-012100-
LAKE MICHIGAN

STATION/POSITION TIME  TEMP    WIND        PRES    WAVE
                       AIR SEA DIR/SP/G            HT/PER
                 (UTC) (F)     (DEG/KT/KT) (MB)    (FT/S)
NORTHPORT PIER   1900    9      30/ 19/ 24 1023.7F
SISTER BAY       1813    9      30/ 18/ 27   N/A
KEWAUNEE LAKESHO 1900   17      50/ 27/ 37 1019.0F
SHEBOYGAN LAKESH 1900   20      40/ 28/ 31 1018.0F
PORT WASHINGTON  1920   23      50/ 25     1015.9F
MILWAUKEE LAKESH 1900   24      40/ 29/ 35   N/A
KENOSHA   LAKESH 1900   24      50/ 33/ 37 1011.9F
$$

TC  - TEMPERATURE IN CELSIUS
VSB - VISIBILITY IN STATUTE MILES
WCI - WIND CHILL INDEX
HX  - HEAT INDEX




USA.gov is the U.S. government's official web portal to all federal, state and local government web resources and services.